EXALTA-1

Last updated on Nov. 15, 2018, 12:02 a.m. UTC

1 42734U 98067MP  18318.24538221  .12474274  12505-4  35882-3 0  9995
2 42734  51.6055 286.4142 0002642 166.4742 193.6358 16.45390460 84235

Satellite is not in orbit.